Погода в Раздельной

Украина / Одесская область     46°51′05″N   30°04′23″E
темп.,
°C
ветер,
м/с
пор.,
м/с
влажн.,
%
обл.,
%
осадки,
мм/ч
давл.,
гПа
погр.,
м
31 июля, сб
сб3100:00+23всв22560 0.0 101111
03:00+22в11570 0.0 101111
06:00+22в116096 0.0 101111
09:00+26вюв224858 0.0 1012310
12:00+30ююв22381 0.0 10111561
15:00+32ю133427 0.0 10102826
18:00+26ю6959100 0.3 1010220
21:00+24ю36633 0.4 101096
1 августа, вс
вс100:00+22ю226950 0.0 101134
03:00+22ююв127417 0.0 101114
06:00+21ю23745 0.0 101127
09:00+27ю56565 0.0 1011487
12:00+32ююз56390 0.0 10111527
15:00+34ююз45340 0.0 10102232
18:00+33ююв653839 0.0 10091436
21:00+26ююв510590 0.0 1010268
2 августа, пн
пн200:00+24ю410720 0.0 1010229
03:00+22ю38720 0.0 1010151
06:00+22ю310765 0.0 1010233
09:00+28ю58529 0.0 1010474
12:00+33ю8937100 0.0 10091160
15:00+31ю71044100 0.0 1008646
18:00+32ююв78420 0.1 1007777
21:00+25вюв45690 1.6 100987
3 августа, вт
вт300:00+23ююв00850 0.0 100911
03:00+22с478398 0.0 1010132
06:00+20с5108638 0.0 1012272
09:00+22с488050 0.0 1013416
12:00+28с56470 0.0 10141404
15:00+30ссз45370 0.0 10132119
18:00+29сз553758 0.0 10131846
21:00+23сз45520 0.0 101572
4 августа, ср
ср400:00+21ссв35570 0.0 101667
03:00+20св3460100 0.0 101652
06:00+20всв2260100 0.0 101717
09:00+24ююв124899 0.0 1017472
12:00+28ююв22380 0.0 10171565
15:00+30зюз223495 0.0 10162223
18:00+30з123321 0.0 10152073
21:00+25ююв4750100 0.0 1016198